Temperature
24 24 23 24 27 27 28 30 33 32 32 32 31 31 30 28 27 24 25 24 23 22 22 21 21 20 20 20 19 19 19 19 19 19 19 19 19 19 18 18 18 18 18 18 18 18 18 18 18
24 23 25 27 28 28 29 31 32 32 32 31 31 31 29 27 27 25 25 24 22 22 22 21 21 20 20 20 19 19 19 19 19 19 19 19 19 19 18 18 18 18 18 18 18 18 18 18 18
24 24 27 29 29 30 31 32 32 32 32 32 31 30 29 27 26 25 24 23 22 21 21 21 21 20 20 20 19 19 19 19 19 19 19 19 19 19 18 18 18 18 18 18 18 18 18 18 18
23 26 28 30 31 32 33 33 33 33 32 31 31 29 27 26 25 24 24 23 22 21 21 21 21 20 20 19 19 19 19 19 19 19 19 19 19 19 19 18 18 18 18 18 18 18 18 18 18
25 28 30 30 32 33 34 34 33 33 32 31 30 27 25 25 24 24 23 23 22 21 21 21 21 20 20 19 19 19 19 19 19 19 19 19 19 19 19 18 18 18 18 18 18 18 18 18 18
27 30 30 30 32 33 34 33 33 33 32 31 29 27 24 24 23 23 23 23 22 21 21 21 20 20 20 19 19 19 19 19 19 19 19 19 19 19 19 19 18 18 18 18 18 18 18 18 18
28 30 30 32 32 33 33 33 32 32 31 30 29 27 24 23 23 23 23 23 22 20 20 21 20 20 20 19 19 19 19 19 19 19 19 19 19 19 19 19 19 19 18 18 18 18 18 18 19
29 30 30 32 32 32 33 32 32 31 30 29 28 26 23 23 23 23 23 23 21 20 20 20 20 20 19 19 19 19 19 19 19 19 19 19 19 19 19 19 19 19 19 19 18 18 18 18 19
29 30 30 32 32 33 33 32 31 31 30 29 27 25 24 23 23 23 22 22 21 20 20 19 19 19 19 19 19 19 19 19 19 19 19 19 18 18 18 18 18 19 19 19 18 19 18 18 18
30 30 31 33 33 33 33 32 31 30 29 27 26 24 23 23 23 22 22 22 21 20 20 19 19 19 19 18 19 19 19 19 18 18 19 18 18 18 18 18 18 18 18 18 18 18 18 18 18
32 31 32 33 33 32 32 32 31 30 28 26 25 24 23 23 22 22 22 22 21 20 20 19 19 19 19 19 19 18 18 18 18 18 18 18 18 18 18 18 18 18 18 18 18 18 18 18 17
32 32 32 32 32 32 32 31 31 30 28 26 25 24 23 23 22 22 22 21 20 20 20 19 19 19 19 19 19 19 18 18 18 18 18 18 18 18 18 18 18 18 18 18 18 18 18 18 18
32 32 32 32 31 31 31 31 30 29 27 26 25 24 23 23 22 22 21 21 20 20 19 19 19 19 19 19 19 19 18 18 18 18 18 18 18 17 17 18 18 17 17 17 17 17 18 18 18
32 32 32 32 31 31 31 31 30 29 27 26 25 24 23 22 22 21 21 20 20 19 19 19 19 19 19 19 19 18 18 18 18 18 18 17 17 17 17 17 17 17 17 17 17 17 17 18 18
32 31 31 30 30 31 31 29 29 27 27 26 25 24 23 22 21 21 20 20 19 19 19 19 19 19 19 19 18 18 18 18 18 18 17 17 17 17 17 17 17 17 17 17 17 17 17 17 17
31 30 29 30 31 31 30 28 29 27 27 26 25 24 22 21 21 20 20 20 19 19 19 19 18 18 18 18 18 18 18 18 18 17 17 17 17 17 17 17 17 17 17 17 17 17 17 17 17
30 29 29 30 31 31 30 29 28 28 27 26 24 23 22 21 20 20 20 19 19 19 18 18 18 18 18 18 18 18 18 17 17 17 17 17 17 17 17 17 17 17 17 17 17 17 17 17 17
29 30 30 31 31 31 30 29 29 28 27 26 24 23 22 21 20 19 19 19 19 18 18 18 18 18 18 18 18 18 17 17 17 17 17 17 17 17 17 17 17 17 17 17 16 16 16 16 17
31 31 30 31 32 31 30 29 29 28 27 26 24 23 22 20 20 19 19 19 18 18 18 18 18 18 18 18 18 17 17 17 17 16 16 16 16 16 16 16 16 16 16 16 16 16 16 16 16
31 30 30 31 31 31 30 29 29 28 27 26 24 23 22 20 19 19 18 18 18 18 18 18 18 18 18 18 18 17 17 17 17 16 16 16 16 16 16 16 16 16 16 16 16 16 16 16 16
31 30 30 30 31 31 30 29 28 28 27 26 25 23 22 21 20 19 18 18 18 17 17 17 17 17 17 17 17 17 17 17 17 17 16 16 16 16 16 16 16 16 16 16 16 15 16 16 16
30 31 31 31 30 29 29 26 27 27 27 26 25 24 23 22 20 19 19 18 18 17 17 17 17 17 17 17 17 17 17 17 17 16 16 16 16 16 16 15 15 16 15 15 15 15 15 15 16
31 32 31 30 29 28 28 27 27 27 26 26 25 24 23 22 21 20 19 18 18 17 17 17 17 17 17 17 17 17 17 17 17 16 16 16 16 15 15 15 15 15 15 15 15 15 15 15 15
32 31 30 28 27 25 26 27 27 27 26 26 26 25 23 22 21 20 19 18 18 18 17 17 17 17 17 17 17 17 17 17 17 16 16 16 16 15 15 15 15 15 15 15 15 15 15 15 15
31 29 27 25 24 23 25 26 27 29 29 28 27 25 24 23 22 20 20 19 18 18 17 17 17 17 17 17 17 17 17 17 16 16 16 16 16 15 15 15 15 15 15 15 14 14 14 14 15
30 29 27 25 25 24 24 25 28 30 29 28 27 26 24 23 22 21 20 19 19 18 18 17 17 17 17 17 17 17 17 17 16 16 16 16 16 16 15 15 15 14 14 14 14 14 14 14 14
30 30 30 28 27 26 25 26 27 29 29 28 27 26 25 23 22 21 20 20 19 18 18 18 17 17 17 17 17 17 17 16 16 16 16 16 16 16 15 15 15 14 14 14 14 14 14 14 14
31 30 29 28 26 26 25 24 25 25 27 28 27 26 25 24 23 22 21 20 20 19 18 18 17 17 17 17 17 17 17 16 16 16 16 16 16 15 15 15 15 14 14 14 14 14 14 14 14
30 29 29 28 28 26 25 24 25 25 27 28 28 27 26 25 24 22 21 21 20 19 18 18 17 17 17 17 17 16 17 16 16 16 16 16 15 15 15 15 15 14 14 14 14 14 14 14 13
29 29 29 27 27 27 26 25 27 26 28 28 28 27 26 25 24 23 22 21 20 20 19 18 17 17 17 17 17 17 16 16 16 16 16 16 15 15 15 15 15 14 14 14 14 14 14 14 13
Wind_Speed
10 13 11 8 6 6 9 8 6 7 8 9 8 7 11 10 8 9 8 17 24 23 22 21 20 19 18 17 17 16 16 15 15 15 14 14 14 14 14 14 14 14 14 14 14 14 14 14 13
10 13 10 7 8 8 5 5 6 7 7 6 5 6 11 10 12 12 12 18 24 23 21 21 21 19 18 17 17 17 16 15 15 14 14 13 13 13 13 14 14 14 14 14 14 14 14 13 12
12 16 8 8 12 10 2 3 4 4 5 4 3 6 7 8 10 11 14 19 22 21 21 22 22 20 19 18 17 17 16 15 15 14 14 13 13 12 13 13 13 13 13 13 14 13 13 12 10
8 9 7 10 12 8 4 4 4 3 2 2 3 7 8 8 8 13 16 19 21 21 22 22 22 20 19 18 18 17 16 15 15 14 13 13 12 12 12 12 13 12 12 13 13 12 11 11 9
11 8 12 14 14 6 3 5 4 3 1 2 5 8 7 9 12 15 16 18 19 21 21 22 21 20 19 18 17 17 16 15 14 14 13 12 12 12 12 12 12 12 12 12 12 11 10 9 7
9 10 13 13 10 2 3 4 3 4 3 3 5 8 7 10 11 13 14 14 17 20 21 21 21 20 19 18 17 16 15 15 14 13 13 12 11 11 11 11 11 11 11 10 10 9 8 7 6
12 12 16 16 8 3 3 4 4 3 4 5 3 5 7 11 10 12 13 13 17 19 20 18 19 19 19 18 17 16 15 14 13 12 12 12 11 11 11 11 10 10 9 9 8 7 6 5 3
12 12 17 13 8 2 3 2 3 3 3 4 4 5 7 11 11 13 13 12 15 19 18 17 17 17 17 16 16 16 15 14 13 12 11 11 11 11 11 11 10 10 9 8 7 6 4 3 2
13 12 13 10 6 3 2 2 2 2 2 3 6 8 13 14 14 14 13 13 13 15 15 15 15 14 15 16 16 15 14 13 12 11 11 10 10 10 10 11 11 10 8 7 5 4 3 3 5
11 11 11 8 7 7 4 2 2 2 1 3 6 9 14 15 14 14 13 15 14 14 14 13 13 12 13 13 14 13 12 12 11 10 10 9 7 8 10 13 11 9 8 7 5 4 4 6 5
11 12 10 7 6 7 7 4 3 2 1 3 4 5 10 13 13 12 11 12 14 13 12 12 10 8 9 9 10 9 9 10 9 10 8 5 4 7 10 10 9 8 8 6 6 5 4 2 1
11 10 9 7 6 6 7 6 4 2 4 5 7 7 10 12 12 12 11 10 12 12 12 12 10 6 5 8 6 6 7 6 6 9 7 5 2 3 5 4 6 6 5 4 4 1 0 2 3
11 11 9 7 7 6 6 6 5 1 6 5 6 7 10 11 12 11 12 11 11 10 11 12 11 8 6 5 4 6 5 5 7 8 6 6 3 2 3 2 2 3 5 4 2 1 1 1 2
11 9 9 7 8 7 6 6 5 1 4 4 3 5 8 11 12 11 11 11 12 12 11 10 10 8 7 6 3 4 5 5 7 7 7 6 6 4 3 2 1 2 4 3 2 2 1 0 1
11 11 10 9 10 10 6 5 3 4 4 4 3 5 7 10 10 12 12 12 11 11 12 10 9 9 8 8 6 5 5 7 6 7 7 5 6 5 3 3 2 2 5 5 3 2 1 1 1
13 12 12 13 14 10 8 5 3 7 6 4 4 6 8 9 10 10 12 12 11 11 11 11 11 10 8 7 5 4 5 6 6 8 8 6 5 4 3 3 2 3 3 4 3 2 1 0 0
13 14 15 12 10 8 6 4 5 6 6 6 7 7 9 10 10 10 11 11 11 11 11 10 10 11 9 8 5 5 4 5 6 8 8 7 6 4 3 3 3 1 1 2 2 3 1 0 1
12 12 10 8 8 8 6 5 7 8 7 7 8 8 9 10 10 10 11 11 11 11 9 9 10 10 9 7 5 5 4 3 5 6 6 6 5 5 3 4 3 1 2 3 2 2 1 1 1
13 13 11 8 4 5 6 6 8 9 8 8 9 9 9 10 11 11 11 11 11 11 10 9 9 9 8 6 6 6 5 4 5 5 7 7 6 5 3 4 2 1 3 3 1 1 2 1 0
14 14 12 9 6 7 8 8 8 9 9 9 10 10 11 12 13 13 12 11 11 10 10 9 9 9 8 6 5 5 6 4 5 5 6 7 6 5 5 3 2 3 3 2 1 0 1 1 1
14 12 11 11 10 10 9 9 7 9 10 10 11 11 12 14 15 14 13 12 12 12 11 10 10 9 8 8 6 6 4 3 5 7 5 5 6 5 4 4 2 2 2 3 1 1 1 2 0
13 10 12 13 12 9 7 7 8 13 13 13 13 13 13 14 15 15 14 13 13 13 11 11 10 9 9 8 8 8 7 6 6 6 6 5 5 5 5 4 3 1 2 3 1 3 1 1 2
13 10 11 12 11 11 10 9 6 11 12 13 14 15 15 15 16 16 15 14 14 14 13 12 11 10 9 8 8 7 6 6 6 7 8 6 4 4 5 5 3 1 2 3 3 3 3 3 3
11 11 10 8 7 10 12 11 6 9 14 15 16 16 16 16 16 15 15 14 14 14 13 13 12 10 9 8 8 6 6 7 8 8 8 6 5 4 5 5 3 2 3 3 3 2 2 2 4
12 11 7 6 4 8 12 9 4 9 14 16 18 18 18 17 17 17 17 16 15 15 14 14 13 11 10 9 8 7 6 7 8 7 8 6 6 5 5 5 3 3 3 3 2 1 2 2 2
13 13 10 8 7 6 6 5 3 6 11 14 17 18 19 19 17 17 18 17 16 16 15 15 13 11 10 9 8 7 7 6 6 6 5 5 4 6 7 6 4 4 3 3 3 1 2 2 0
15 13 13 12 13 9 4 3 2 5 10 13 16 17 18 19 19 19 18 18 17 17 16 16 15 12 11 10 9 8 7 6 6 6 4 4 5 8 7 6 5 4 3 2 2 1 1 2 1
16 12 9 9 9 9 4 4 2 5 9 12 15 18 18 19 19 19 18 17 16 16 15 16 15 13 11 11 10 10 7 5 6 6 5 5 6 7 7 5 5 4 4 3 2 2 3 2 1
12 13 10 9 8 8 6 3 4 9 9 12 15 17 19 20 20 19 17 17 16 16 16 15 16 14 12 11 9 9 9 8 7 5 6 6 6 7 6 5 5 5 5 4 3 3 2 3 3
13 14 13 11 9 9 7 2 4 6 8 10 14 17 18 19 19 19 18 17 16 17 17 16 16 15 14 12 10 9 9 9 8 8 7 7 7 7 6 6 5 6 6 5 4 5 4 4 4
Wind_Direction
238 244 239 253 248 250 278 300 16 48 52 47 41 49 70 60 69 102 133 124 120 124 131 133 133 134 134 133 130 127 124 120 115 110 106 102 99 95 93 91 90 90 90 89 88 86 84 84 84
254 255 247 250 255 262 273 305 24 48 63 68 64 65 82 73 85 115 125 120 122 128 136 134 134 133 134 133 131 129 127 124 119 115 111 107 103 99 96 94 93 92 91 91 91 88 85 83 83
259 262 263 252 259 273 301 7 42 55 62 54 71 68 71 84 92 115 123 125 126 131 131 133 136 134 134 134 133 131 130 127 123 119 115 111 107 103 99 97 97 96 93 93 92 89 87 84 81
255 245 241 257 269 286 338 17 21 36 79 80 82 88 75 82 107 122 132 131 130 131 131 135 137 136 135 134 133 132 130 128 125 122 119 115 111 108 104 102 101 100 97 94 93 91 87 83 78
246 258 250 262 270 290 6 7 348 340 50 73 78 94 94 91 111 128 136 134 137 132 131 137 138 137 136 136 135 134 132 130 129 127 124 119 116 113 110 107 105 104 101 98 96 93 88 83 74
255 256 264 270 277 317 13 16 342 342 354 58 87 106 100 107 117 135 139 139 134 130 133 137 139 139 138 138 136 135 134 134 133 131 130 125 123 121 117 114 111 108 106 103 100 96 91 85 73
259 276 280 282 288 312 40 15 346 349 357 36 52 98 118 116 130 143 137 137 129 129 131 139 142 142 141 140 139 139 139 138 138 137 137 134 133 132 127 122 118 115 113 111 108 104 99 94 81
257 278 287 289 295 334 68 28 354 351 25 49 54 93 128 132 149 144 136 126 126 129 135 142 145 146 147 145 145 145 146 146 146 146 146 146 147 146 142 138 129 126 123 121 121 122 123 130 158
255 264 278 294 318 349 35 8 2 32 40 57 55 88 128 144 150 146 140 131 128 130 134 142 145 152 153 152 149 150 151 154 154 157 161 165 171 162 159 142 138 136 135 135 140 149 171 198 216
240 256 276 314 339 340 353 357 322 286 21 57 78 100 130 145 148 154 152 144 137 135 139 142 147 156 158 152 149 158 159 160 170 163 173 188 178 154 145 140 144 147 150 155 167 187 219 235 228
247 260 285 312 332 327 323 327 321 300 31 61 99 143 149 148 151 157 156 146 140 144 142 136 145 155 150 139 154 156 147 155 171 157 176 183 142 133 132 144 147 160 169 175 169 201 233 231 337
251 268 284 299 321 312 306 312 324 356 77 115 137 170 161 159 159 160 153 145 146 147 141 138 140 136 129 136 148 143 143 161 156 153 174 142 110 104 118 135 156 167 162 150 146 174 341 7 357
248 260 267 270 279 277 290 296 291 339 100 112 137 156 159 164 159 156 151 149 150 144 140 138 142 141 124 113 141 141 135 151 138 144 152 144 142 126 114 105 132 142 129 136 145 149 83 347 333
271 270 270 272 274 268 267 273 263 198 127 128 138 151 164 158 159 154 150 153 153 151 146 140 141 136 130 130 138 124 130 128 128 134 139 145 134 124 129 142 134 120 124 128 155 139 137 281 315
272 273 277 273 260 256 254 268 249 138 138 142 146 133 139 143 152 156 159 155 156 155 144 140 140 140 142 145 154 135 134 136 126 124 127 125 127 135 150 147 159 143 146 152 153 147 161 204 271
278 267 267 255 241 234 240 261 153 158 160 158 144 136 138 136 150 153 152 153 154 149 145 152 152 145 140 134 137 137 134 131 128 130 126 121 125 149 161 150 143 159 162 147 143 136 132 118 289
262 258 257 254 226 226 234 251 171 171 166 160 152 151 147 141 143 142 148 153 146 143 146 150 141 144 142 137 136 117 106 120 128 125 123 130 137 145 130 104 96 149 123 94 97 88 75 288 294
262 265 265 257 216 217 238 222 188 180 179 165 155 152 149 146 149 146 142 145 139 139 142 144 138 141 141 136 126 120 121 125 114 113 120 133 135 125 116 114 109 122 94 81 76 81 179 243 260
270 282 290 288 265 248 247 232 203 181 179 168 155 151 157 153 152 148 145 144 144 143 149 148 144 143 142 144 146 145 148 141 129 127 132 134 126 126 105 104 119 90 94 94 92 67 239 227 42
270 277 283 285 278 268 263 245 207 187 189 179 164 162 164 159 155 154 153 154 153 151 151 148 148 149 149 146 141 145 139 148 132 118 134 141 138 142 135 110 141 104 113 116 122 79 319 296 99
269 276 282 279 266 257 265 260 215 195 183 176 171 170 172 168 165 163 162 160 158 159 160 158 151 149 146 143 136 133 126 135 124 134 146 145 145 140 104 111 87 93 126 112 94 15 358 356 342
269 271 276 278 276 276 260 263 222 190 186 181 176 173 173 171 165 165 164 160 160 159 158 149 147 147 144 148 151 156 163 160 148 149 142 145 147 140 130 118 98 75 91 113 178 101 358 343 328
273 281 282 287 289 283 270 261 226 178 187 185 177 175 173 170 165 166 167 163 162 159 155 150 147 145 147 153 157 166 160 149 142 134 136 148 144 148 141 130 119 112 90 88 59 66 21 357 2
268 273 277 284 290 281 274 269 228 184 186 189 181 174 170 169 164 162 162 161 161 159 156 152 149 149 155 161 159 169 158 148 142 143 149 165 157 163 150 141 135 126 101 94 82 63 66 43 30
246 254 261 269 250 252 269 270 225 185 175 177 175 171 168 167 165 165 165 164 163 163 159 155 153 157 162 162 159 165 156 150 147 157 165 182 163 157 146 133 129 113 105 116 111 105 61 54 38
243 247 252 265 264 265 269 258 190 157 152 157 162 165 165 166 168 169 169 168 168 166 162 158 160 164 166 163 159 160 158 165 162 177 174 181 160 136 136 132 144 142 156 148 122 179 162 130 121
246 246 256 263 272 274 252 256 125 146 145 149 158 164 168 169 170 171 171 171 171 169 167 164 164 166 167 164 160 163 176 181 160 159 179 157 130 136 139 146 150 150 144 115 129 207 90 119 234
242 250 261 268 279 283 273 281 189 205 173 162 165 169 170 170 170 171 172 173 172 170 167 165 166 168 169 166 169 172 174 161 149 163 166 134 121 117 141 154 158 162 159 169 205 221 179 165 204
239 243 253 267 270 281 284 281 198 203 189 175 174 170 170 172 172 172 172 172 172 170 170 168 169 169 171 172 180 165 169 165 164 168 156 137 135 139 155 167 171 175 178 183 200 252 185 201 233
260 249 246 251 259 277 285 258 196 197 186 179 175 170 171 173 173 171 172 172 173 173 173 172 172 174 175 173 174 169 170 170 175 175 164 158 158 165 174 180 186 194 191 188 204 237 228 218 228
Height
1493 1492 1492 1494 1491 1488 1485 1468 1456 1457 1461 1464 1466 1467 1472 1479 1484 1497 1497 1498 1500 1502 1506 1510 1514 1517 1520 1524 1527 1529 1532 1534 1536 1537 1539 1540 1541 1543 1544 1545 1545 1546 1547 1548 1549 1549 1550 1551 1552
1492 1493 1495 1492 1486 1491 1482 1466 1461 1461 1463 1466 1468 1470 1474 1481 1486 1492 1496 1499 1500 1502 1507 1511 1515 1518 1522 1525 1528 1531 1533 1535 1537 1539 1541 1542 1543 1544 1546 1547 1547 1548 1549 1550 1551 1552 1552 1553 1554
1492 1493 1494 1484 1480 1479 1474 1462 1460 1460 1464 1466 1469 1472 1477 1484 1489 1492 1496 1499 1501 1504 1508 1511 1515 1519 1523 1526 1529 1532 1534 1537 1539 1541 1542 1544 1545 1546 1547 1548 1549 1550 1551 1552 1553 1554 1555 1556 1557
1493 1492 1489 1479 1475 1462 1458 1457 1458 1460 1464 1467 1469 1475 1482 1487 1490 1493 1496 1500 1502 1506 1508 1512 1516 1520 1524 1527 1530 1533 1536 1538 1540 1542 1544 1545 1546 1548 1549 1550 1551 1552 1553 1554 1555 1556 1557 1558 1559
1494 1489 1482 1478 1468 1457 1454 1457 1459 1461 1464 1467 1470 1479 1487 1490 1491 1493 1497 1500 1503 1506 1509 1513 1517 1521 1525 1528 1531 1534 1537 1539 1541 1543 1545 1546 1548 1549 1551 1552 1553 1554 1555 1556 1557 1558 1559 1560 1561
1491 1482 1482 1477 1464 1456 1456 1459 1461 1463 1464 1467 1472 1479 1487 1491 1492 1495 1497 1501 1504 1506 1509 1513 1518 1522 1525 1529 1532 1535 1538 1540 1542 1544 1546 1547 1549 1551 1552 1553 1554 1555 1556 1557 1558 1560 1561 1562 1563
1490 1481 1477 1468 1462 1458 1457 1461 1462 1464 1467 1470 1474 1479 1488 1492 1495 1496 1498 1502 1504 1506 1509 1513 1518 1522 1525 1529 1532 1535 1538 1541 1543 1545 1547 1549 1550 1552 1553 1554 1555 1556 1558 1559 1560 1561 1562 1563 1564
1486 1481 1475 1465 1462 1460 1458 1462 1464 1466 1469 1473 1476 1481 1489 1491 1494 1497 1500 1502 1505 1507 1510 1514 1518 1522 1525 1529 1533 1536 1539 1541 1544 1546 1548 1549 1551 1552 1554 1555 1556 1558 1559 1560 1561 1562 1563 1564 1566
1483 1482 1478 1465 1461 1459 1458 1462 1466 1468 1471 1474 1478 1481 1486 1491 1494 1498 1500 1502 1505 1508 1512 1516 1518 1522 1526 1529 1533 1536 1539 1542 1544 1546 1548 1550 1552 1553 1554 1556 1557 1558 1559 1561 1562 1563 1564 1565 1566
1478 1478 1471 1460 1458 1458 1459 1462 1466 1469 1472 1476 1479 1484 1487 1491 1494 1497 1499 1502 1505 1508 1513 1517 1520 1523 1527 1531 1533 1536 1539 1542 1544 1546 1549 1550 1553 1554 1555 1557 1558 1559 1560 1561 1562 1564 1565 1566 1567
1471 1470 1464 1461 1461 1462 1462 1463 1466 1468 1472 1477 1481 1484 1487 1491 1494 1497 1499 1502 1506 1509 1513 1516 1520 1524 1528 1531 1533 1536 1539 1542 1544 1546 1549 1551 1553 1555 1555 1557 1558 1559 1560 1561 1562 1563 1564 1566 1567
1468 1465 1463 1463 1463 1464 1464 1464 1467 1469 1473 1477 1480 1483 1486 1489 1492 1496 1498 1502 1505 1509 1512 1515 1519 1524 1528 1530 1534 1537 1539 1541 1544 1546 1548 1551 1553 1554 1555 1556 1558 1559 1560 1561 1563 1563 1564 1566 1566
1464 1464 1463 1463 1465 1465 1465 1465 1467 1470 1474 1477 1480 1482 1485 1488 1491 1494 1497 1501 1504 1508 1511 1515 1518 1523 1526 1529 1533 1536 1538 1541 1543 1545 1548 1550 1552 1553 1555 1556 1558 1559 1560 1561 1562 1563 1564 1565 1566
1461 1461 1461 1461 1463 1463 1464 1464 1467 1470 1474 1476 1478 1480 1483 1486 1489 1493 1496 1499 1503 1507 1511 1514 1518 1521 1524 1527 1531 1535 1538 1540 1542 1544 1546 1549 1550 1552 1554 1555 1557 1558 1559 1560 1561 1562 1563 1564 1565
1462 1461 1462 1462 1463 1461 1462 1466 1465 1470 1473 1476 1478 1480 1483 1486 1489 1492 1495 1498 1502 1507 1510 1513 1517 1520 1523 1527 1531 1534 1537 1539 1541 1543 1545 1547 1549 1551 1553 1554 1556 1557 1558 1559 1560 1561 1562 1563 1564
1461 1464 1470 1461 1457 1458 1464 1471 1466 1468 1471 1474 1477 1480 1483 1486 1489 1493 1496 1499 1502 1506 1509 1513 1517 1520 1523 1526 1530 1533 1536 1539 1541 1542 1544 1546 1548 1550 1552 1553 1555 1556 1557 1559 1560 1560 1561 1562 1562
1465 1469 1467 1458 1452 1453 1458 1464 1464 1466 1469 1473 1477 1480 1483 1486 1490 1493 1495 1498 1501 1505 1508 1513 1516 1519 1523 1526 1529 1533 1536 1538 1540 1542 1543 1545 1547 1549 1551 1552 1554 1555 1557 1558 1559 1559 1559 1560 1561
1468 1462 1458 1455 1448 1450 1455 1459 1460 1463 1466 1470 1475 1478 1482 1486 1490 1493 1495 1499 1502 1504 1507 1512 1515 1519 1522 1526 1529 1532 1535 1538 1540 1541 1543 1545 1547 1549 1550 1552 1553 1554 1555 1556 1557 1558 1559 1559 1560
1453 1454 1456 1451 1443 1448 1452 1455 1457 1460 1464 1468 1473 1477 1482 1485 1489 1492 1495 1498 1501 1504 1507 1511 1515 1518 1521 1525 1528 1531 1534 1537 1539 1541 1543 1545 1547 1548 1550 1551 1552 1553 1554 1555 1556 1557 1558 1559 1559
1450 1454 1454 1449 1444 1447 1450 1452 1452 1456 1461 1465 1470 1475 1479 1484 1487 1491 1494 1497 1500 1503 1507 1510 1513 1517 1520 1524 1527 1531 1534 1536 1539 1541 1543 1545 1546 1548 1550 1550 1551 1552 1553 1554 1555 1556 1557 1558 1559
1449 1452 1452 1451 1444 1442 1448 1455 1454 1454 1459 1464 1468 1473 1477 1481 1485 1489 1493 1496 1499 1502 1505 1508 1512 1516 1519 1523 1526 1530 1533 1536 1538 1540 1542 1544 1546 1547 1548 1549 1551 1552 1553 1553 1554 1555 1556 1557 1558
1451 1443 1444 1446 1451 1454 1453 1470 1458 1452 1456 1460 1465 1470 1474 1478 1483 1487 1491 1495 1498 1501 1504 1508 1512 1515 1518 1522 1525 1528 1532 1535 1537 1539 1541 1543 1545 1547 1548 1549 1550 1551 1552 1552 1554 1554 1555 1557 1558
1443 1439 1442 1445 1451 1457 1455 1461 1456 1448 1456 1458 1461 1467 1471 1477 1481 1486 1490 1494 1498 1501 1504 1507 1511 1514 1517 1521 1524 1528 1531 1534 1537 1539 1541 1543 1544 1546 1547 1548 1549 1550 1551 1551 1552 1553 1554 1555 1556
1437 1441 1445 1449 1459 1475 1463 1462 1460 1448 1450 1452 1457 1462 1468 1474 1479 1484 1489 1493 1497 1501 1504 1507 1510 1513 1517 1520 1524 1527 1530 1533 1535 1538 1540 1542 1543 1545 1546 1548 1548 1549 1550 1551 1551 1552 1553 1554 1555
1438 1450 1466 1476 1483 1483 1462 1459 1451 1436 1436 1442 1450 1458 1465 1471 1477 1482 1487 1492 1496 1500 1503 1506 1509 1513 1517 1520 1523 1526 1529 1532 1534 1537 1539 1541 1543 1544 1546 1547 1547 1548 1549 1550 1551 1551 1552 1553 1554
1438 1445 1466 1481 1481 1473 1464 1460 1443 1430 1433 1438 1446 1454 1461 1468 1474 1480 1485 1490 1494 1498 1502 1505 1508 1512 1516 1519 1522 1525 1528 1531 1534 1536 1539 1541 1543 1543 1544 1545 1546 1547 1548 1550 1550 1551 1552 1552 1553
1438 1438 1435 1450 1454 1462 1463 1452 1443 1433 1434 1439 1445 1452 1458 1465 1471 1478 1483 1488 1492 1497 1500 1504 1507 1511 1515 1518 1521 1524 1527 1530 1533 1535 1538 1540 1541 1542 1543 1544 1545 1546 1547 1548 1549 1550 1551 1551 1552
1427 1430 1438 1447 1463 1468 1468 1462 1457 1446 1440 1439 1443 1449 1455 1462 1469 1475 1481 1486 1491 1495 1499 1503 1506 1510 1513 1517 1520 1523 1526 1529 1531 1534 1536 1538 1539 1540 1541 1543 1544 1545 1546 1547 1548 1549 1550 1550 1551
1430 1432 1435 1440 1444 1460 1471 1466 1442 1441 1437 1438 1441 1446 1452 1459 1465 1472 1478 1483 1488 1493 1497 1501 1505 1508 1512 1515 1519 1522 1524 1527 1529 1532 1534 1535 1537 1538 1540 1541 1542 1544 1545 1546 1547 1548 1549 1549 1550
1425 1428 1432 1446 1448 1445 1456 1458 1432 1434 1433 1434 1437 1443 1450 1456 1462 1469 1475 1481 1486 1491 1495 1499 1503 1506 1510 1513 1517 1520 1523 1525 1527 1529 1531 1533 1535 1536 1538 1540 1541 1542 1543 1544 1545 1546 1548 1548 1548